User: anonymous   Login
Location: Unspecified
(0.0000°N, 0.0000°E)
Time: 07:32:17
(UTC+00:00)
Language:

BEESAT - Orbit

View from above orbital plane
View from above orbital plane
View from above satellite
View from above satellite

Ground track
Ground track

The orbit data is extracted from the following two-line orbital elements,

1 35933U 09051C   18014.89676948 +.00000101 +00000-0 +33768-4 0  9992
2 35933 098.5258 164.0287 0005355 344.8106 015.2929 14.56219620441153
Epoch (UTC): 14 January 2018 21:31:20
Eccentricity: 0.0005355
inclination: 98.5258°
perigee height: 701 km
apogee height: 709 km
right ascension of ascending node: 164.0287°
argument of perigee: 344.8106°
revolutions per day: 14.56219620
mean anomaly at epoch: 15.2929°
orbit number at epoch: 44115

The dashed part of the orbit path shows where the satellite is in the earth's shadow,  

DLR